Location: Unspecified
(0.0000°N, 0.0000°E)
Time: 18:09:20
(UTC+00:00)

JUGNU - Pass Details

Date: 17 December 2017
Orbit: 837 x 864 km, 20.0° (Epoch: 16 January)

Event Time Altitude Azimuth Distance (km) Brightness Sun altitude
Rises 20:28:50 0° 237° (WSW) 3,404 ? -34.5°
Reaches altitude 10° 20:31:32 10° 230° (SW) 2,463 ? -35.1°
Enters shadow 20:35:05 32° 204° (SSW) 1,416 ? -35.9°
